SCP
0 0 0 0 0 0 0 0 0 0 0 0 0 0 0 0 0 0 0 0 0 0 0 0 0 0 0 0 0 0 0 0 0 0 0 0 0 0 0 0 0 0 0 0 0
0 0 0 0 0 0 0 0 0 0 0 0 0 -0 0 0 0 0 0 0 0 0 0 0 0 0 0 0 0 0 0 0 0 0 0 0 0 0 0 0 0 0 0 0 0
0 0 0 0 0 0 0 0 0 0 0 0 0 0 0 0 0 0 0 0 0 0 0 0 0 0 0 0 0 0 0 0 0 0 0 0 0 0 0 0 0 0 0 0 0
0 0 0 0 0 0 0 0 0 0 0 0 0 -0 0 0 0 0 0 0 0 0 0 0 0 0 0 0 0 0 0 0 0 0 0 0 0 0 0 0 0 0 0 0 0
0 0 0 0 0 0 0 0 0 0 -0 0 0 0 -0 0 0 0 0 0 0 0 0 0 0 0 0 0 0 0 0 0 0 0 0 0 0 0 0 0 0 0 0 0 0
0 -0 0 0 0 0 0 -0 0 0 -0 0 0 0 -0 0 0 0 0 0 0 0 0 0 0 0 0 0 0 0 0 0 0 0 0 0 0 0 0 0 0 0 0 0 0
-0 -0 0 0 0 0 -0 -0 0 -0 0 0 0 -0 -0 0 0 0 0 0 0 0 0 0 0 0 0 0 0 0 0 0 0 0 0 0 0 0 0 0 0 0 0 0 0
-0 -0 0 0 0 0 0 -0 0 0 -0 -0 0 -0 -0 -0 0 0 0 0 0 0 0 0 0 0 0 0 0 0 0 0 0 0 0 0 0 0 0 0 0 0 0 0 0
-0 -0 -0 0 0 0 0 -0 -0 -0 -0 -0 -0 -0 -0 -0 0 0 0 0 0 0 0 0 0 0 0 0 0 0 0 0 0 0 0 0 0 0 0 0 0 0 0 0 0
-0 -0 -0 0 0 0 0 -0 0 0 0 -0 -0 -0 -0 0 0 0 0 0 0 0 0 0 0 0 0 0 0 0 0 0 0 0 0 0 0 0 0 0 0 0 0 0 0
-0 -0 -0 0 0 0 0 0 -0 -0 -0 -0 -0 -0 -0 -0 0 0 0 0 0 0 0 0 0 0 0 0 0 0 0 0 0 0 0 0 0 0 0 0 0 0 0 0 0
-0 -0 -0 0 0 0 0 0 0 -0 0 0 -0 -0 -0 -0 0 0 0 0 0 0 0 0 0 0 0 0 0 0 0 0 0 0 0 0 0 0 0 0 0 0 0 0 0
-0 -0 -0 0 0 0 0 0 0 0 0 0 -0 -0 0 -0 0 0 0 0 0 0 0 0 0 0 0 0 0 0 0 0 0 0 0 0 0 0 0 0 0 0 0 0 0
-0 -0 -0 0 0 0 0 0 0 -0 0 0 -0 -0 0 -0 -0 0 0 0 0 0 0 0 0 0 0 0 0 0 0 0 0 0 0 0 0 0 0 0 0 0 0 0 0
-0 -0 0 0 0 0 0 0 0 -0 -0 0 0 -0 -0 -0 0 0 0 0 0 0 0 0 0 0 0 0 0 0 0 0 0 0 0 0 0 -0 0 0 0 0 0 0 0
-0 -0 0 0 0 0 0 0 0 0 -0 0 -0 0 0 -0 -0 -0 0 0 0 0 0 0 0 0 0 0 0 0 0 0 0 0 0 0 0 0 0 0 0 0 0 0 0
-0 0 0 0 0 0 0 0 0 0 -0 0 0 0 0 0 -0 -0 -0 0 0 0 0 0 0 0 0 0 0 0 0 0 0 0 0 0 0 0 0 0 0 0 0 0 0
0 0 0 0 0 0 0 0 0 0 -0 -0 -0 0 0 0 0 -0 -0 0 0 0 0 0 0 0 0 0 0 0 0 0 0 0 0 0 0 0 0 0 0 0 0 0 0
0 0 0 0 0 0 0 0 0 0 -0 0 0 0 0 0 0 0 -0 0 -0 0 0 0 0 0 0 0 0 0 0 0 0 0 0 0 0 0 0 0 0 0 0 0 0
0 0 0 0 0 0 0 0 0 0 0 -0 0 0 0 0 0 0 -0 -0 0 0 0 0 0 0 0 0 0 0 0 0 0 0 0 0 0 0 0 0 0 0 0 0 0
0 0 0 0 0 0 0 0 0 0 0 0 0 0 0 0 0 0 0 0 0 0 0 0 0 0 0 0 0 0 0 0 0 0 0 0 0 0 0 0 0 0 0 0 0
0 0 0 0 0 0 0 0 0 0 0 0 0 0 0 0 0 0 0 0 0 0 0 0 0 0 0 0 0 0 0 0 0 0 0 0 0 0 0 0 0 0 0 0 0
0 0 0 0 0 0 0 0 0 0 0 0 0 0 0 0 0 0 0 0 0 0 0 0 0 0 0 0 0 0 0 0 0 0 0 0 0 0 0 0 0 0 0 0 0
0 0 0 0 0 0 0 0 0 0 0 0 0 0 0 0 -0 0 0 -0 -0 0 0 0 0 0 0 0 0 0 0 0 0 0 0 0 0 0 0 0 0 0 0 0 0
0 0 0 0 0 0 0 0 0 0 0 0 0 0 0 0 0 0 0 0 -0 -0 0 0 0 0 0 0 0 0 0 0 0 0 0 0 0 0 0 0 0 0 0 0 0
0 0 0 0 0 0 0 0 0 0 0 0 0 0 0 0 0 0 0 0 -0 -0 -0 0 0 0 0 0 0 0 0 0 0 0 0 0 0 0 0 -0 0 0 0 0 0
0 0 0 0 0 0 0 0 0 0 0 0 0 -0 0 0 -0 0 0 -0 0 -0 0 0 0 0 -0 -0 0 0 0 0 0 0 0 0 0 0 0 0 0 0 0 0 0
Wind_Speed_500mb
33 32 33 34 36 39 41 39 42 44 51 46 55 63 49 50 50 59 77 71 54 50 30 41 30 46 57 25 14 8 5 8 9 11 10 11 10 13 13 21 17 22 9 11 47
36 37 37 37 34 36 39 42 41 45 48 53 53 65 50 57 53 75 74 63 52 44 52 42 35 27 54 26 13 12 8 17 12 9 7 3 14 21 13 15 12 22 19 18 52
34 36 38 41 41 42 43 43 43 45 46 52 57 58 58 46 46 76 62 65 51 49 50 52 48 38 28 41 25 14 10 10 10 17 10 5 6 16 15 6 26 43 35 36 57
33 36 40 43 44 42 44 43 45 45 49 49 48 48 64 44 17 8 34 51 50 46 52 44 38 25 17 18 24 12 21 14 12 16 7 4 4 8 27 11 21 29 36 42 57
36 37 40 45 47 45 46 45 44 46 44 43 38 39 52 39 44 7 16 18 52 59 54 53 42 27 14 16 24 11 15 27 24 11 10 7 9 10 20 33 10 26 38 43 51
37 41 40 43 48 50 50 47 46 46 42 42 35 27 28 38 20 49 23 19 43 70 58 50 28 30 14 16 27 29 20 19 17 12 12 9 6 5 2 25 30 25 43 47 48
37 42 41 42 45 51 54 53 49 44 42 45 35 28 21 33 21 33 22 22 33 55 63 53 22 31 15 5 14 21 12 7 13 17 11 15 9 12 23 10 29 33 44 51 52
36 39 39 42 44 48 51 55 50 42 36 30 25 29 17 22 26 30 30 27 24 30 40 51 38 25 11 10 8 11 10 12 5 20 9 21 10 13 38 21 31 32 44 51 56
36 37 38 43 45 51 53 55 48 35 30 29 16 13 12 16 19 36 22 28 28 24 26 43 35 13 13 12 6 10 13 11 5 12 9 8 7 7 15 34 32 36 42 51 54
34 35 38 42 43 50 56 54 34 17 21 9 6 5 5 12 23 39 33 25 29 31 28 28 14 7 3 9 24 11 10 4 10 10 4 10 20 7 3 20 35 35 37 44 53
31 34 37 41 44 42 48 52 32 12 51 13 22 16 25 19 17 42 31 18 32 35 9 9 9 25 16 9 5 10 9 12 6 7 10 17 12 22 26 22 18 29 39 39 52
29 32 36 38 37 29 34 25 23 25 23 42 27 35 35 28 16 31 38 12 14 11 10 6 15 10 14 7 13 11 4 7 5 3 6 7 14 17 16 19 46 54 47 43 53
28 31 35 35 27 27 25 33 24 21 10 25 17 6 9 12 8 13 51 5 4 12 12 11 3 17 16 10 10 7 7 3 5 7 6 4 12 16 10 22 41 54 57 60 62
27 30 32 28 15 31 18 32 23 18 5 12 11 6 4 10 7 9 37 8 10 19 12 6 7 22 18 17 17 20 14 8 9 4 7 1 9 12 11 16 13 40 54 66 68
27 29 27 23 22 24 35 30 26 9 11 21 12 16 6 2 6 21 12 13 13 9 12 8 14 20 9 11 14 9 15 12 5 6 5 2 2 12 1 13 17 26 46 55 66
25 25 22 18 21 27 33 30 18 12 7 15 13 15 14 3 1 8 14 18 4 8 9 5 1 12 16 8 11 18 17 13 8 4 4 8 10 8 10 11 7 13 24 21 20
22 19 16 18 21 27 26 24 11 12 10 18 13 19 19 5 5 11 9 3 4 8 9 4 4 5 9 18 7 3 13 5 3 2 12 7 7 12 14 9 10 10 13 4 8
15 12 12 14 17 22 24 11 16 7 9 8 10 21 12 14 5 6 10 6 5 6 6 9 7 10 7 9 18 11 9 10 13 8 7 2 14 11 13 17 25 29 35 31 26
12 9 10 13 14 11 12 11 13 12 8 13 18 11 12 8 9 9 5 6 11 21 2 5 2 3 3 3 13 8 7 8 12 6 6 8 14 15 13 22 10 14 19 20 14
12 9 10 11 6 9 10 3 4 7 11 6 3 5 6 11 6 7 5 2 5 11 14 3 4 5 4 14 11 5 14 6 4 8 7 8 8 9 6 9 11 4 5 9 18
11 7 7 6 7 7 6 11 7 9 7 3 4 11 9 5 4 6 6 10 16 6 15 5 2 8 5 11 17 4 4 5 4 8 9 2 10 14 16 6 13 14 8 5 18
7 4 2 6 6 3 1 9 5 8 3 6 4 9 7 5 5 5 12 12 32 18 8 4 3 7 12 5 3 10 18 27 7 10 3 3 11 5 9 10 12 18 10 7 12
4 3 4 7 4 5 9 7 6 4 3 7 4 4 5 11 7 4 4 0 21 20 5 6 6 2 10 8 6 15 18 30 27 5 12 9 13 2 3 12 14 2 7 10 12
2 4 2 4 2 10 1 6 9 7 7 7 7 6 5 6 7 8 7 1 8 6 18 18 6 9 14 4 6 11 28 24 35 14 25 24 8 4 7 7 9 2 6 10 13
8 4 5 2 4 5 2 3 4 6 4 5 5 2 3 6 9 5 7 12 5 2 8 7 4 2 16 15 8 5 22 29 37 42 22 45 17 18 12 7 9 5 4 11 20
10 9 5 3 2 6 7 7 8 6 5 8 5 2 2 3 6 16 12 5 6 6 4 2 4 4 9 12 19 15 15 32 28 30 27 19 23 10 16 18 26 24 10 11 18
24 16 7 8 6 5 8 11 10 7 8 17 9 2 6 13 13 29 30 25 23 4 4 3 2 3 5 3 13 6 16 14 20 21 26 21 45 6 14 15 21 28 24 17 9
Wind_Direction_500mb
335 329 325 314 308 309 309 303 298 294 291 284 279 276 275 267 257 250 248 246 246 236 230 222 221 215 230 257 231 215 86 184 214 171 244 162 189 168 182 154 169 186 185 178 177
345 345 341 330 321 313 310 305 298 298 293 290 283 263 284 263 252 253 249 249 239 239 235 219 207 204 208 237 203 167 171 207 196 200 241 233 197 173 163 156 192 190 185 173 174
344 347 346 344 336 327 315 305 299 300 301 291 285 281 267 295 241 256 246 246 233 224 226 222 218 205 199 205 198 169 202 215 220 222 262 287 225 182 155 211 200 201 187 173 177
334 341 342 341 341 337 326 317 301 300 305 296 289 279 259 296 195 226 247 236 223 220 215 209 197 185 184 179 197 178 226 212 207 199 193 206 258 213 210 203 223 216 208 182 186
327 330 335 335 334 339 337 328 316 301 299 306 293 290 275 295 220 320 314 211 201 201 205 203 191 174 185 178 150 201 178 214 223 181 192 213 235 236 248 229 261 206 202 203 196
324 324 324 329 328 333 337 333 320 309 298 312 300 292 260 269 243 240 272 213 201 201 206 198 205 185 191 196 187 202 198 202 183 185 194 181 217 193 288 238 239 213 206 206 206
323 326 324 326 325 328 329 330 323 312 304 311 306 309 215 247 245 215 225 207 206 200 201 195 174 178 158 145 174 151 150 294 188 160 195 170 264 225 241 250 226 214 210 208 208
322 328 331 327 324 328 326 324 323 313 299 307 303 301 312 286 237 188 201 213 195 196 214 193 190 182 156 143 95 126 118 187 229 145 193 147 239 255 236 224 226 223 211 213 211
327 329 330 327 322 325 326 325 326 306 306 304 301 243 256 272 281 186 195 212 185 173 168 162 167 159 142 145 105 229 197 184 221 213 140 159 244 243 236 219 229 226 221 218 219
333 336 331 331 328 329 329 333 333 327 20 340 274 251 267 310 321 193 182 204 177 155 136 157 140 120 87 162 201 168 126 135 177 207 160 147 242 257 201 229 231 233 227 226 225
333 335 333 331 332 336 342 352 10 333 329 291 291 299 297 344 337 181 169 179 175 161 156 153 131 191 169 176 116 151 155 146 216 203 138 203 227 235 238 243 247 250 244 231 231
331 329 334 336 335 342 348 25 357 309 307 312 308 266 259 296 324 179 180 198 162 148 126 118 212 170 154 142 93 66 159 173 95 112 154 140 253 249 245 241 242 245 244 245 240
333 329 333 337 341 347 351 356 346 340 300 306 331 290 240 213 239 312 187 185 149 143 188 161 214 153 160 151 153 113 128 209 124 124 53 66 298 274 241 240 244 246 249 249 248
333 329 336 339 346 343 355 344 342 339 350 293 356 14 174 198 207 295 221 175 189 180 147 189 133 160 160 186 168 204 153 97 60 127 212 173 265 262 258 255 247 248 245 246 247
336 331 336 342 339 341 339 337 333 336 40 314 352 350 343 294 352 26 161 202 213 143 138 194 147 151 154 195 149 199 159 167 90 70 6 324 313 262 224 256 253 249 245 248 248
332 329 332 334 334 334 331 329 325 38 301 336 356 348 354 230 47 56 21 340 332 92 48 61 231 161 175 134 139 140 91 62 68 82 313 213 184 244 202 213 228 255 255 252 243
327 325 327 334 334 337 336 335 33 92 325 337 334 331 327 266 194 160 136 324 295 143 146 112 313 295 140 104 53 86 130 95 57 51 233 314 188 268 260 242 229 274 256 298 317
339 327 328 342 340 338 340 40 65 241 261 308 296 315 324 344 355 223 134 216 178 313 121 157 171 195 197 162 171 177 158 151 178 191 206 35 233 236 236 280 269 271 270 271 270
9 356 346 344 343 346 349 48 194 207 291 318 326 42 343 12 325 350 222 232 186 167 296 140 114 308 58 126 135 185 218 125 100 32 66 223 294 283 274 278 268 274 259 253 224
3 354 353 349 7 355 64 251 199 233 330 337 340 353 333 316 31 36 246 290 219 170 129 286 115 15 131 86 349 138 145 95 29 134 242 269 280 246 297 245 323 309 281 239 191
342 329 358 23 10 17 123 223 283 281 329 337 305 305 277 292 302 303 332 354 5 313 177 127 16 310 118 222 165 144 201 145 110 162 197 217 255 221 232 256 287 285 316 229 180
310 27 309 340 16 46 98 191 305 289 312 329 287 261 278 338 304 310 22 347 341 302 176 157 144 165 197 337 340 213 192 197 200 214 238 174 265 221 222 294 276 277 295 179 174
254 248 8 0 100 320 306 296 250 280 320 342 310 350 306 309 330 337 290 248 30 355 343 171 194 62 353 348 326 208 203 196 189 105 208 154 249 163 7 4 357 1 144 150 154
227 22 53 59 89 130 85 294 312 260 260 259 278 279 309 325 357 306 314 44 264 98 351 346 193 183 221 220 147 207 206 203 189 198 221 232 234 50 68 53 17 32 147 138 141
193 232 172 220 255 226 162 167 317 325 254 263 332 40 28 316 318 314 344 329 341 99 51 18 299 239 267 257 246 213 218 207 199 214 201 239 210 234 203 163 151 98 81 142 140
188 159 137 139 120 176 217 241 223 272 190 286 168 351 325 247 289 310 317 287 284 2 64 152 298 331 340 345 231 245 236 212 228 240 243 235 273 210 264 189 195 186 178 157 147
210 193 180 188 187 179 224 217 217 176 255 241 204 120 271 271 298 289 280 258 264 300 266 233 308 332 251 40 346 283 222 222 218 209 229 236 244 145 224 244 228 211 216 197 164
Wind_Speed_850mb
33 32 33 34 36 39 41 39 42 44 51 46 55 63 49 50 50 59 77 71 54 50 30 41 30 46 57 25 14 8 5 8 9 11 10 11 10 13 13 21 17 22 9 11 47
36 37 37 37 34 36 39 42 41 45 48 53 53 65 50 57 53 75 74 63 52 44 52 42 35 27 54 26 13 12 8 17 12 9 7 3 14 21 13 15 12 22 19 18 52
34 36 38 41 41 42 43 43 43 45 46 52 57 58 58 46 46 76 62 65 51 49 50 52 48 38 28 41 25 14 10 10 10 17 10 5 6 16 15 6 26 43 35 36 57
33 36 40 43 44 42 44 43 45 45 49 49 48 48 64 44 17 8 34 51 50 46 52 44 38 25 17 18 24 12 21 14 12 16 7 4 4 8 27 11 21 29 36 42 57
36 37 40 45 47 45 46 45 44 46 44 43 38 39 52 39 44 7 16 18 52 59 54 53 42 27 14 16 24 11 15 27 24 11 10 7 9 10 20 33 10 26 38 43 51
37 41 40 43 48 50 50 47 46 46 42 42 35 27 28 38 20 49 23 19 43 70 58 50 28 30 14 16 27 29 20 19 17 12 12 9 6 5 2 25 30 25 43 47 48
37 42 41 42 45 51 54 53 49 44 42 45 35 28 21 33 21 33 22 22 33 55 63 53 22 31 15 5 14 21 12 7 13 17 11 15 9 12 23 10 29 33 44 51 52
36 39 39 42 44 48 51 55 50 42 36 30 25 29 17 22 26 30 30 27 24 30 40 51 38 25 11 10 8 11 10 12 5 20 9 21 10 13 38 21 31 32 44 51 56
36 37 38 43 45 51 53 55 48 35 30 29 16 13 12 16 19 36 22 28 28 24 26 43 35 13 13 12 6 10 13 11 5 12 9 8 7 7 15 34 32 36 42 51 54
34 35 38 42 43 50 56 54 34 17 21 9 6 5 5 12 23 39 33 25 29 31 28 28 14 7 3 9 24 11 10 4 10 10 4 10 20 7 3 20 35 35 37 44 53
31 34 37 41 44 42 48 52 32 12 51 13 22 16 25 19 17 42 31 18 32 35 9 9 9 25 16 9 5 10 9 12 6 7 10 17 12 22 26 22 18 29 39 39 52
29 32 36 38 37 29 34 25 23 25 23 42 27 35 35 28 16 31 38 12 14 11 10 6 15 10 14 7 13 11 4 7 5 3 6 7 14 17 16 19 46 54 47 43 53
28 31 35 35 27 27 25 33 24 21 10 25 17 6 9 12 8 13 51 5 4 12 12 11 3 17 16 10 10 7 7 3 5 7 6 4 12 16 10 22 41 54 57 60 62
27 30 32 28 15 31 18 32 23 18 5 12 11 6 4 10 7 9 37 8 10 19 12 6 7 22 18 17 17 20 14 8 9 4 7 1 9 12 11 16 13 40 54 66 68
27 29 27 23 22 24 35 30 26 9 11 21 12 16 6 2 6 21 12 13 13 9 12 8 14 20 9 11 14 9 15 12 5 6 5 2 2 12 1 13 17 26 46 55 66
25 25 22 18 21 27 33 30 18 12 7 15 13 15 14 3 1 8 14 18 4 8 9 5 1 12 16 8 11 18 17 13 8 4 4 8 10 8 10 11 7 13 24 21 20
22 19 16 18 21 27 26 24 11 12 10 18 13 19 19 5 5 11 9 3 4 8 9 4 4 5 9 18 7 3 13 5 3 2 12 7 7 12 14 9 10 10 13 4 8
15 12 12 14 17 22 24 11 16 7 9 8 10 21 12 14 5 6 10 6 5 6 6 9 7 10 7 9 18 11 9 10 13 8 7 2 14 11 13 17 25 29 35 31 26
12 9 10 13 14 11 12 11 13 12 8 13 18 11 12 8 9 9 5 6 11 21 2 5 2 3 3 3 13 8 7 8 12 6 6 8 14 15 13 22 10 14 19 20 14
12 9 10 11 6 9 10 3 4 7 11 6 3 5 6 11 6 7 5 2 5 11 14 3 4 5 4 14 11 5 14 6 4 8 7 8 8 9 6 9 11 4 5 9 18
11 7 7 6 7 7 6 11 7 9 7 3 4 11 9 5 4 6 6 10 16 6 15 5 2 8 5 11 17 4 4 5 4 8 9 2 10 14 16 6 13 14 8 5 18
7 4 2 6 6 3 1 9 5 8 3 6 4 9 7 5 5 5 12 12 32 18 8 4 3 7 12 5 3 10 18 27 7 10 3 3 11 5 9 10 12 18 10 7 12
4 3 4 7 4 5 9 7 6 4 3 7 4 4 5 11 7 4 4 0 21 20 5 6 6 2 10 8 6 15 18 30 27 5 12 9 13 2 3 12 14 2 7 10 12
2 4 2 4 2 10 1 6 9 7 7 7 7 6 5 6 7 8 7 1 8 6 18 18 6 9 14 4 6 11 28 24 35 14 25 24 8 4 7 7 9 2 6 10 13
8 4 5 2 4 5 2 3 4 6 4 5 5 2 3 6 9 5 7 12 5 2 8 7 4 2 16 15 8 5 22 29 37 42 22 45 17 18 12 7 9 5 4 11 20
10 9 5 3 2 6 7 7 8 6 5 8 5 2 2 3 6 16 12 5 6 6 4 2 4 4 9 12 19 15 15 32 28 30 27 19 23 10 16 18 26 24 10 11 18
24 16 7 8 6 5 8 11 10 7 8 17 9 2 6 13 13 29 30 25 23 4 4 3 2 3 5 3 13 6 16 14 20 21 26 21 45 6 14 15 21 28 24 17 9
Wind_Direction_850mb
335 329 325 314 308 309 309 303 298 294 291 284 279 276 275 267 257 250 248 246 246 236 230 222 221 215 230 257 231 215 86 184 214 171 244 162 189 168 182 154 169 186 185 178 177
345 345 341 330 321 313 310 305 298 298 293 290 283 263 284 263 252 253 249 249 239 239 235 219 207 204 208 237 203 167 171 207 196 200 241 233 197 173 163 156 192 190 185 173 174
344 347 346 344 336 327 315 305 299 300 301 291 285 281 267 295 241 256 246 246 233 224 226 222 218 205 199 205 198 169 202 215 220 222 262 287 225 182 155 211 200 201 187 173 177
334 341 342 341 341 337 326 317 301 300 305 296 289 279 259 296 195 226 247 236 223 220 215 209 197 185 184 179 197 178 226 212 207 199 193 206 258 213 210 203 223 216 208 182 186
327 330 335 335 334 339 337 328 316 301 299 306 293 290 275 295 220 320 314 211 201 201 205 203 191 174 185 178 150 201 178 214 223 181 192 213 235 236 248 229 261 206 202 203 196
324 324 324 329 328 333 337 333 320 309 298 312 300 292 260 269 243 240 272 213 201 201 206 198 205 185 191 196 187 202 198 202 183 185 194 181 217 193 288 238 239 213 206 206 206
323 326 324 326 325 328 329 330 323 312 304 311 306 309 215 247 245 215 225 207 206 200 201 195 174 178 158 145 174 151 150 294 188 160 195 170 264 225 241 250 226 214 210 208 208
322 328 331 327 324 328 326 324 323 313 299 307 303 301 312 286 237 188 201 213 195 196 214 193 190 182 156 143 95 126 118 187 229 145 193 147 239 255 236 224 226 223 211 213 211
327 329 330 327 322 325 326 325 326 306 306 304 301 243 256 272 281 186 195 212 185 173 168 162 167 159 142 145 105 229 197 184 221 213 140 159 244 243 236 219 229 226 221 218 219
333 336 331 331 328 329 329 333 333 327 20 340 274 251 267 310 321 193 182 204 177 155 136 157 140 120 87 162 201 168 126 135 177 207 160 147 242 257 201 229 231 233 227 226 225
333 335 333 331 332 336 342 352 10 333 329 291 291 299 297 344 337 181 169 179 175 161 156 153 131 191 169 176 116 151 155 146 216 203 138 203 227 235 238 243 247 250 244 231 231
331 329 334 336 335 342 348 25 357 309 307 312 308 266 259 296 324 179 180 198 162 148 126 118 212 170 154 142 93 66 159 173 95 112 154 140 253 249 245 241 242 245 244 245 240
333 329 333 337 341 347 351 356 346 340 300 306 331 290 240 213 239 312 187 185 149 143 188 161 214 153 160 151 153 113 128 209 124 124 53 66 298 274 241 240 244 246 249 249 248
333 329 336 339 346 343 355 344 342 339 350 293 356 14 174 198 207 295 221 175 189 180 147 189 133 160 160 186 168 204 153 97 60 127 212 173 265 262 258 255 247 248 245 246 247
336 331 336 342 339 341 339 337 333 336 40 314 352 350 343 294 352 26 161 202 213 143 138 194 147 151 154 195 149 199 159 167 90 70 6 324 313 262 224 256 253 249 245 248 248
332 329 332 334 334 334 331 329 325 38 301 336 356 348 354 230 47 56 21 340 332 92 48 61 231 161 175 134 139 140 91 62 68 82 313 213 184 244 202 213 228 255 255 252 243
327 325 327 334 334 337 336 335 33 92 325 337 334 331 327 266 194 160 136 324 295 143 146 112 313 295 140 104 53 86 130 95 57 51 233 314 188 268 260 242 229 274 256 298 317
339 327 328 342 340 338 340 40 65 241 261 308 296 315 324 344 355 223 134 216 178 313 121 157 171 195 197 162 171 177 158 151 178 191 206 35 233 236 236 280 269 271 270 271 270
9 356 346 344 343 346 349 48 194 207 291 318 326 42 343 12 325 350 222 232 186 167 296 140 114 308 58 126 135 185 218 125 100 32 66 223 294 283 274 278 268 274 259 253 224
3 354 353 349 7 355 64 251 199 233 330 337 340 353 333 316 31 36 246 290 219 170 129 286 115 15 131 86 349 138 145 95 29 134 242 269 280 246 297 245 323 309 281 239 191
342 329 358 23 10 17 123 223 283 281 329 337 305 305 277 292 302 303 332 354 5 313 177 127 16 310 118 222 165 144 201 145 110 162 197 217 255 221 232 256 287 285 316 229 180
310 27 309 340 16 46 98 191 305 289 312 329 287 261 278 338 304 310 22 347 341 302 176 157 144 165 197 337 340 213 192 197 200 214 238 174 265 221 222 294 276 277 295 179 174
254 248 8 0 100 320 306 296 250 280 320 342 310 350 306 309 330 337 290 248 30 355 343 171 194 62 353 348 326 208 203 196 189 105 208 154 249 163 7 4 357 1 144 150 154
227 22 53 59 89 130 85 294 312 260 260 259 278 279 309 325 357 306 314 44 264 98 351 346 193 183 221 220 147 207 206 203 189 198 221 232 234 50 68 53 17 32 147 138 141
193 232 172 220 255 226 162 167 317 325 254 263 332 40 28 316 318 314 344 329 341 99 51 18 299 239 267 257 246 213 218 207 199 214 201 239 210 234 203 163 151 98 81 142 140
188 159 137 139 120 176 217 241 223 272 190 286 168 351 325 247 289 310 317 287 284 2 64 152 298 331 340 345 231 245 236 212 228 240 243 235 273 210 264 189 195 186 178 157 147
210 193 180 188 187 179 224 217 217 176 255 241 204 120 271 271 298 289 280 258 264 300 266 233 308 332 251 40 346 283 222 222 218 209 229 236 244 145 224 244 228 211 216 197 164